Radiation Dose at Monitoring Post of Fukushima Daini Nuclear Power Station
Date,Time,MP-1(microSv/h),MP-2(microSv/h),MP-3(microSv/h),MP-4(microSv/h),MP-5(microSv/h),MP-6(microSv/h),MP-7(microSv/h),Wind Direction,Wind Velocity(m/s),Rain
2016/08/29,00:00,0.387,0.231,0.402,0.366,0.357,0.188,0.158,north,5.6,Yes
2016/08/29,00:10,0.390,0.233,0.407,0.368,0.356,0.189,0.159,north-northwest,5.5,Yes
2016/08/29,00:20,0.387,0.232,0.405,0.366,0.360,0.189,0.159,north,5.5,Yes
2016/08/29,00:30,0.387,0.230,0.401,0.367,0.356,0.188,0.157,north,5.7,Yes
2016/08/29,00:40,0.387,0.233,0.403,0.368,0.357,0.188,0.158,north,5.6,Yes
2016/08/29,00:50,0.383,0.230,0.399,0.364,0.358,0.189,0.157,north,5.8,Yes
2016/08/29,01:00,0.387,0.231,0.399,0.365,0.354,0.188,0.157,north,6.3,Yes
2016/08/29,01:10,0.383,0.232,0.400,0.365,0.358,0.188,0.158,north,6.4,Yes
2016/08/29,01:20,0.383,0.230,0.397,0.364,0.357,0.188,0.157,north,6.1,Yes
2016/08/29,01:30,0.385,0.232,0.400,0.369,0.355,0.187,0.158,north-northeast,6.9,Yes
2016/08/29,01:40,0.383,0.232,0.401,0.364,0.358,0.189,0.158,north-northeast,7.0,Yes
2016/08/29,01:50,0.385,0.230,0.397,0.365,0.356,0.186,0.156,north-northeast,7.0,Yes
2016/08/29,02:00,0.386,0.232,0.401,0.366,0.356,0.187,0.158,north-northeast,6.6,Yes
2016/08/29,02:10,0.382,0.232,0.399,0.361,0.358,0.187,0.157,northeast,6.7,Yes
2016/08/29,02:20,0.384,0.229,0.395,0.366,0.353,0.186,0.156,northeast,6.1,Yes
2016/08/29,02:30,0.384,0.232,0.401,0.365,0.356,0.187,0.158,northeast,6.7,No
2016/08/29,02:40,0.382,0.230,0.398,0.362,0.357,0.188,0.156,northeast,5.3,No
2016/08/29,02:50,0.386,0.229,0.397,0.365,0.354,0.187,0.157,north-northeast,7.9,Yes
2016/08/29,03:00,0.385,0.231,0.402,0.366,0.356,0.187,0.157,north-northeast,6.2,No
2016/08/29,03:10,0.382,0.230,0.399,0.361,0.356,0.187,0.156,northeast,7.5,No
2016/08/29,03:20,0.386,0.229,0.397,0.365,0.354,0.187,0.156,north-northeast,7.0,No
2016/08/29,03:30,0.385,0.231,0.401,0.367,0.356,0.187,0.158,northeast,7.3,No
2016/08/29,03:40,0.383,0.229,0.399,0.363,0.358,0.187,0.157,north-northeast,8.2,No
2016/08/29,03:50,0.386,0.230,0.398,0.364,0.353,0.187,0.156,north-northeast,7.7,No
2016/08/29,04:00,0.386,0.231,0.402,0.366,0.356,0.186,0.159,northeast,9.6,No
2016/08/29,04:10,0.381,0.230,0.400,0.362,0.357,0.187,0.158,northeast,8.4,No
2016/08/29,04:20,0.386,0.230,0.397,0.363,0.354,0.188,0.156,northeast,8.2,No
2016/08/29,04:30,0.386,0.232,0.402,0.368,0.356,0.186,0.158,northeast,7.8,No
2016/08/29,04:40,0.382,0.230,0.402,0.364,0.357,0.187,0.156,north-northeast,6.7,No
2016/08/29,04:50,0.388,0.230,0.397,0.364,0.355,0.187,0.157,northeast,5.3,No
2016/08/29,05:00,0.386,0.232,0.399,0.368,0.357,0.187,0.158,north-northeast,6.4,No
2016/08/29,05:10,0.383,0.230,0.401,0.366,0.360,0.188,0.158,north-northeast,6.5,No
2016/08/29,05:20,0.387,0.230,0.397,0.363,0.355,0.187,0.157,north-northeast,6.7,No
2016/08/29,05:30,0.389,0.232,0.400,0.369,0.357,0.187,0.159,north-northeast,7.1,No
2016/08/29,05:40,0.383,0.231,0.402,0.365,0.360,0.188,0.158,north-northeast,8.7,No
2016/08/29,05:50,0.388,0.230,0.401,0.363,0.356,0.187,0.156,north-northeast,6.8,No
2016/08/29,06:00,0.388,0.233,0.399,0.367,0.356,0.186,0.158,north-northeast,7.7,No
2016/08/29,06:10,0.385,0.231,0.401,0.365,0.360,0.188,0.157,north-northeast,7.2,Yes
2016/08/29,06:20,0.384,0.229,0.400,0.364,0.356,0.188,0.157,north-northeast,6.9,Yes
2016/08/29,06:30,0.389,0.232,0.399,0.366,0.354,0.186,0.158,north-northeast,7.9,Yes
2016/08/29,06:40,0.385,0.232,0.403,0.368,0.359,0.189,0.158,north-northeast,7.2,Yes
2016/08/29,06:50,0.383,0.230,0.401,0.364,0.357,0.188,0.157,north-northeast,7.5,Yes
2016/08/29,07:00,0.388,0.231,0.397,0.365,0.353,0.186,0.155,north-northeast,6.3,Yes
2016/08/29,07:10,0.384,0.231,0.400,0.367,0.358,0.187,0.158,north-northeast,7.5,No
2016/08/29,07:20,0.383,0.229,0.401,0.365,0.357,0.188,0.157,north-northeast,8.1,No
2016/08/29,07:30,0.388,0.231,0.398,0.363,0.353,0.187,0.157,north-northeast,8.2,No
2016/08/29,07:40,0.386,0.232,0.397,0.366,0.354,0.186,0.158,north-northeast,8.4,No
2016/08/29,07:50,0.382,0.230,0.401,0.365,0.357,0.187,0.158,north-northeast,8.0,No
2016/08/29,08:00,0.385,0.230,0.400,0.364,0.356,0.188,0.158,north-northeast,8.4,Yes
2016/08/29,08:10,0.388,0.232,0.398,0.362,0.353,0.186,0.156,north-northeast,7.4,Yes
2016/08/29,08:20,0.384,0.230,0.400,0.368,0.357,0.187,0.157,north-northeast,7.2,Yes
2016/08/29,08:30,0.383,0.230,0.400,0.364,0.356,0.187,0.156,north-northeast,7.5,Yes
2016/08/29,08:40,0.387,0.231,0.398,0.361,0.352,0.186,0.155,north-northeast,8.3,Yes
2016/08/29,08:50,0.383,0.230,0.395,0.363,0.355,0.185,0.155,northeast,7.3,Yes
2016/08/29,09:00,0.380,0.229,0.399,0.364,0.355,0.186,0.156,north-northeast,8.0,Yes
2016/08/29,09:10,0.385,0.229,0.397,0.359,0.352,0.186,0.156,north-northeast,9.5,Yes
2016/08/29,09:20,0.383,0.230,0.394,0.359,0.352,0.185,0.156,northeast,9.6,Yes
2016/08/29,09:30,0.380,0.228,0.395,0.362,0.356,0.186,0.156,northeast,9.5,Yes
2016/08/29,09:40,0.383,0.229,0.397,0.361,0.354,0.185,0.154,northeast,8.8,Yes
2016/08/29,09:50,0.384,0.230,0.395,0.358,0.351,0.185,0.155,northeast,10.1,Yes
2016/08/29,10:00,0.380,0.228,0.393,0.363,0.355,0.185,0.155,northeast,9.6,Yes
2016/08/29,10:10,0.381,0.228,0.399,0.363,0.358,0.185,0.156,northeast,9.6,Yes
2016/08/29,10:20,0.384,0.230,0.395,0.359,0.352,0.187,0.155,northeast,10.0,Yes
2016/08/29,10:30,0.381,0.228,0.392,0.358,0.352,0.185,0.156,northeast,10.1,No
2016/08/29,10:40,0.380,0.228,0.396,0.364,0.356,0.185,0.157,northeast,9.6,No
2016/08/29,10:50,0.385,0.228,0.399,0.362,0.356,0.186,0.155,northeast,10.0,No
2016/08/29,11:00,0.384,0.231,0.397,0.361,0.353,0.186,0.155,northeast,9.5,No
2016/08/29,11:10,0.382,0.229,0.396,0.359,0.351,0.187,0.155,northeast,8.9,No
2016/08/29,11:20,0.382,0.230,0.394,0.363,0.351,0.186,0.154,northeast,10.3,No
2016/08/29,11:30,0.380,0.229,0.397,0.363,0.354,0.185,0.154,northeast,8.9,No
2016/08/29,11:40,0.388,0.227,0.400,0.362,0.359,0.185,0.156,northeast,10.3,No
2016/08/29,11:50,0.385,0.229,0.398,0.360,0.357,0.187,0.155,northeast,10.0,No
2016/08/29,12:00,0.382,0.232,0.396,0.361,0.355,0.187,0.157,northeast,10.1,No
2016/08/29,12:10,0.381,0.233,0.394,0.365,0.354,0.186,0.158,northeast,9.8,No
2016/08/29,12:20,0.384,0.231,0.397,0.367,0.352,0.186,0.157,northeast,10.1,No
2016/08/29,12:30,0.389,0.229,0.402,0.365,0.360,0.188,0.156,northeast,10.0,No
2016/08/29,12:40,0.384,0.228,0.399,0.362,0.360,0.188,0.156,northeast,10.4,No
2016/08/29,12:50,0.384,0.231,0.396,0.363,0.357,0.187,0.157,northeast,9.5,No
2016/08/29,13:00,0.383,0.234,0.395,0.363,0.354,0.188,0.156,northeast,10.7,No
2016/08/29,13:10,0.388,0.232,0.400,0.366,0.354,0.187,0.155,northeast,10.3,No
2016/08/29,13:20,0.387,0.231,0.402,0.366,0.354,0.187,0.158,northeast,11.0,No
2016/08/29,13:30,0.386,0.230,0.401,0.365,0.359,0.187,0.157,northeast,10.4,No
2016/08/29,13:40,0.383,0.231,0.397,0.364,0.359,0.187,0.158,northeast,9.5,No
2016/08/29,13:50,0.385,0.231,0.397,0.364,0.356,0.188,0.158,northeast,10.8,No
2016/08/29,14:00,0.387,0.230,0.401,0.368,0.356,0.189,0.156,northeast,10.5,No
2016/08/29,14:10,0.386,0.230,0.405,0.368,0.353,0.188,0.156,northeast,11.5,No
2016/08/29,14:20,0.384,0.231,0.400,0.365,0.359,0.187,0.157,northeast,11.4,No
2016/08/29,14:30,0.386,0.233,0.399,0.365,0.359,0.187,0.158,northeast,11.4,No
2016/08/29,14:40,0.388,0.232,0.397,0.367,0.357,0.187,0.158,northeast,11.4,No
2016/08/29,14:50,0.387,0.230,0.401,0.369,0.355,0.188,0.157,northeast,10.3,No
2016/08/29,15:00,0.384,0.231,0.403,0.366,0.356,0.189,0.156,northeast,11.1,No
2016/08/29,15:10,0.385,0.232,0.399,0.363,0.359,0.187,0.158,northeast,10.2,No
2016/08/29,15:20,0.389,0.231,0.397,0.367,0.358,0.187,0.158,northeast,11.3,No
2016/08/29,15:30,0.387,0.231,0.402,0.369,0.355,0.188,0.157,northeast,11.0,No
2016/08/29,15:40,0.384,0.230,0.405,0.366,0.357,0.189,0.157,northeast,11.2,No
2016/08/29,15:50,0.388,0.233,0.401,0.365,0.359,0.188,0.159,northeast,11.1,No
2016/08/29,16:00,0.389,0.230,0.398,0.368,0.357,0.187,0.158,northeast,12.0,No
2016/08/29,16:10,0.387,0.231,0.401,0.370,0.355,0.188,0.159,northeast,12.1,Yes
2016/08/29,16:20,0.385,0.232,0.405,0.368,0.357,0.189,0.158,northeast,12.5,Yes
2016/08/29,16:30,0.390,0.232,0.401,0.365,0.360,0.189,0.157,northeast,12.2,Yes
2016/08/29,16:40,0.387,0.230,0.399,0.365,0.356,0.187,0.158,northeast,12.2,Yes
2016/08/29,16:50,0.384,0.230,0.402,0.364,0.353,0.186,0.157,northeast,12.1,Yes
2016/08/29,17:00,0.387,0.231,0.401,0.364,0.357,0.188,0.157,northeast,12.1,Yes
2016/08/29,17:10,0.385,0.229,0.395,0.363,0.355,0.186,0.157,northeast,11.3,Yes
2016/08/29,17:20,0.380,0.229,0.394,0.361,0.351,0.185,0.156,northeast,11.7,Yes
2016/08/29,17:30,0.384,0.231,0.397,0.359,0.355,0.185,0.154,northeast,11.5,Yes
2016/08/29,17:40,0.385,0.230,0.394,0.359,0.355,0.185,0.156,northeast,11.2,Yes
2016/08/29,17:50,0.381,0.230,0.395,0.363,0.353,0.184,0.156,northeast,12.3,Yes
2016/08/29,18:00,0.383,0.231,0.400,0.361,0.354,0.185,0.155,northeast,12.1,Yes
2016/08/29,18:10,0.384,0.229,0.396,0.358,0.356,0.185,0.156,northeast,11.3,Yes
2016/08/29,18:20,0.381,0.229,0.393,0.363,0.354,0.184,0.156,northeast,11.0,Yes
2016/08/29,18:30,0.380,0.231,0.399,0.361,0.353,0.184,0.156,northeast,10.7,Yes
2016/08/29,18:40,0.385,0.229,0.396,0.358,0.357,0.186,0.156,northeast,10.9,Yes
2016/08/29,18:50,0.382,0.229,0.393,0.362,0.355,0.186,0.155,northeast,10.7,Yes
2016/08/29,19:00,0.381,0.231,0.397,0.362,0.352,0.184,0.156,northeast,11.7,Yes
2016/08/29,19:10,0.385,0.230,0.397,0.361,0.357,0.185,0.156,northeast,12.1,Yes
2016/08/29,19:20,0.384,0.230,0.397,0.361,0.356,0.186,0.156,northeast,11.3,No
2016/08/29,19:30,0.380,0.231,0.395,0.364,0.353,0.185,0.156,northeast,11.3,Yes
2016/08/29,19:40,0.386,0.230,0.400,0.363,0.357,0.186,0.155,northeast,11.5,Yes
2016/08/29,19:50,0.385,0.230,0.396,0.360,0.357,0.186,0.158,northeast,10.1,No
2016/08/29,20:00,0.383,0.231,0.393,0.364,0.353,0.185,0.157,northeast,10.7,No
2016/08/29,20:10,0.384,0.230,0.399,0.363,0.355,0.183,0.155,northeast,10.7,No
2016/08/29,20:20,0.387,0.229,0.399,0.362,0.358,0.186,0.157,northeast,10.8,No
2016/08/29,20:30,0.382,0.231,0.395,0.363,0.355,0.187,0.156,northeast,10.4,No
2016/08/29,20:40,0.385,0.231,0.396,0.365,0.353,0.184,0.156,northeast,11.4,No
2016/08/29,20:50,0.386,0.228,0.401,0.362,0.358,0.186,0.156,northeast,11.8,No
2016/08/29,21:00,0.384,0.232,0.397,0.362,0.356,0.186,0.158,northeast,11.8,No
2016/08/29,21:10,0.383,0.231,0.394,0.365,0.353,0.185,0.156,northeast,11.8,No
2016/08/29,21:20,0.387,0.229,0.398,0.364,0.355,0.185,0.155,northeast,10.7,Yes
2016/08/29,21:30,0.385,0.230,0.401,0.362,0.358,0.185,0.157,northeast,11.5,No
2016/08/29,21:40,0.382,0.231,0.397,0.363,0.354,0.186,0.156,northeast,11.8,No
2016/08/29,21:50,0.386,0.229,0.395,0.366,0.352,0.187,0.157,northeast,11.8,No
2016/08/29,22:00,0.386,0.231,0.399,0.363,0.359,0.186,0.157,northeast,11.0,No
2016/08/29,22:10,0.382,0.232,0.399,0.360,0.358,0.187,0.158,northeast,11.5,No
2016/08/29,22:20,0.384,0.231,0.396,0.367,0.353,0.186,0.156,northeast,11.0,No
2016/08/29,22:30,0.388,0.230,0.399,0.365,0.355,0.185,0.157,northeast,11.2,No
2016/08/29,22:40,0.383,0.231,0.401,0.362,0.359,0.186,0.158,northeast,11.3,No
2016/08/29,22:50,0.383,0.231,0.399,0.365,0.356,0.186,0.157,northeast,11.1,No
2016/08/29,23:00,0.388,0.230,0.396,0.368,0.353,0.187,0.155,northeast,11.1,No
2016/08/29,23:10,0.387,0.230,0.401,0.365,0.359,0.186,0.157,northeast,11.8,No
2016/08/29,23:20,0.382,0.231,0.402,0.362,0.358,0.187,0.158,northeast,11.6,No
2016/08/29,23:30,0.386,0.232,0.398,0.366,0.355,0.187,0.156,northeast,12.6,No
2016/08/29,23:40,0.388,0.230,0.397,0.367,0.356,0.187,0.156,northeast,11.8,No
2016/08/29,23:50,0.385,0.232,0.402,0.364,0.357,0.187,0.157,northeast,11.2,No
